Time,TemperatureF,DewpointF,PressureIn,WindDirection,WindDirectionDegrees,WindSpeedMPH,WindSpeedGustMPH,Humidity,HourlyPrecipIn,Conditions,Clouds,dailyrainin,SoftwareType,DateUTC
2017-05-26 00:02:00,55.0,51.8,29.55,West,273,0.0,0.0,89,0.00,,,0.00,WeatherCatV1.24B11,2017-05-26 04:02:00,
2017-05-26 00:07:00,55.0,51.8,29.55,West,273,0.0,0.0,89,0.00,,,0.00,WeatherCatV1.24B11,2017-05-26 04:07:00,
2017-05-26 00:12:00,55.0,51.8,29.55,West,272,0.0,0.0,89,0.00,,,0.00,WeatherCatV1.24B11,2017-05-26 04:12:00,
2017-05-26 00:17:00,55.0,51.8,29.55,West,259,0.0,0.0,89,0.00,,,0.00,WeatherCatV1.24B11,2017-05-26 04:17:00,
2017-05-26 00:22:00,55.0,51.8,29.55,West,278,0.0,0.0,89,0.00,,,0.01,WeatherCatV1.24B11,2017-05-26 04:22:00,
2017-05-26 00:27:00,55.0,51.8,29.55,WSW,257,0.0,1.0,89,0.00,,,0.01,WeatherCatV1.24B11,2017-05-26 04:27:00,
2017-05-26 00:32:00,55.1,51.9,29.55,West,263,0.0,1.0,89,0.00,,,0.01,WeatherCatV1.24B11,2017-05-26 04:32:00,
2017-05-26 00:37:00,55.1,51.9,29.55,West,274,0.0,2.0,89,0.00,,,0.01,WeatherCatV1.24B11,2017-05-26 04:37:00,
2017-05-26 00:42:00,55.1,51.9,29.55,WNW,293,0.0,0.0,89,0.00,,,0.01,WeatherCatV1.24B11,2017-05-26 04:42:00,
2017-05-26 00:47:00,55.2,52.0,29.55,WSW,249,0.0,1.0,89,0.00,,,0.01,WeatherCatV1.24B11,2017-05-26 04:47:00,
2017-05-26 00:52:00,55.2,52.0,29.55,West,271,1.0,1.0,89,0.00,,,0.01,WeatherCatV1.24B11,2017-05-26 04:52:00,
2017-05-26 00:57:00,55.3,52.1,29.55,WNW,293,0.0,0.0,89,0.00,,,0.02,WeatherCatV1.24B11,2017-05-26 04:57:00,
2017-05-26 01:02:00,55.3,52.1,29.55,WNW,284,1.0,4.0,89,0.00,,,0.02,WeatherCatV1.24B11,2017-05-26 05:02:00,
2017-05-26 01:07:00,55.3,52.1,29.55,West,276,1.0,4.0,89,0.00,,,0.02,WeatherCatV1.24B11,2017-05-26 05:07:00,
2017-05-26 01:12:00,55.3,52.1,29.55,WNW,287,3.0,3.0,89,0.00,,,0.02,WeatherCatV1.24B11,2017-05-26 05:12:00,
2017-05-26 01:17:00,55.3,52.1,29.56,WSW,246,0.0,2.0,89,0.00,,,0.02,WeatherCatV1.24B11,2017-05-26 05:17:00,
2017-05-26 01:22:00,55.2,52.0,29.56,West,265,0.0,0.0,89,0.00,,,0.02,WeatherCatV1.24B11,2017-05-26 05:22:00,
2017-05-26 01:27:00,55.2,52.0,29.56,WSW,252,0.0,0.0,89,0.00,,,0.02,WeatherCatV1.24B11,2017-05-26 05:27:00,
2017-05-26 01:32:00,55.1,51.9,29.56,West,274,2.0,2.0,89,0.00,,,0.02,WeatherCatV1.24B11,2017-05-26 05:32:00,
2017-05-26 01:42:00,55.0,51.8,29.56,WSW,257,0.0,1.0,89,0.00,,,0.03,WeatherCatV1.24B11,2017-05-26 05:42:00,
2017-05-26 01:47:00,54.9,52.0,29.56,NW,326,0.0,0.0,90,0.00,,,0.03,WeatherCatV1.24B11,2017-05-26 05:47:00,
2017-05-26 01:52:00,54.9,51.7,29.56,West,281,0.0,2.0,89,0.00,,,0.03,WeatherCatV1.24B11,2017-05-26 05:52:00,
2017-05-26 01:57:00,54.8,51.6,29.56,WSW,245,0.0,2.0,89,0.00,,,0.03,WeatherCatV1.24B11,2017-05-26 05:57:00,
2017-05-26 02:02:00,54.8,51.6,29.56,WSW,245,0.0,0.0,89,0.00,,,0.03,WeatherCatV1.24B11,2017-05-26 06:02:00,
2017-05-26 02:07:00,54.8,51.6,29.56,WSW,245,0.0,0.0,89,0.00,,,0.03,WeatherCatV1.24B11,2017-05-26 06:07:00,
2017-05-26 02:12:00,54.8,51.6,29.56,WSW,253,0.0,0.0,89,0.00,,,0.04,WeatherCatV1.24B11,2017-05-26 06:12:00,
2017-05-26 02:17:00,54.8,51.6,29.56,West,269,0.0,1.0,89,0.00,,,0.04,WeatherCatV1.24B11,2017-05-26 06:17:00,
2017-05-26 02:22:00,54.8,51.6,29.56,North,351,1.0,1.0,89,0.00,,,0.04,WeatherCatV1.24B11,2017-05-26 06:22:00,
2017-05-26 02:27:00,54.8,51.6,29.56,North,351,0.0,0.0,89,0.00,,,0.04,WeatherCatV1.24B11,2017-05-26 06:27:00,
2017-05-26 02:32:00,54.9,51.7,29.57,North,352,0.0,0.0,89,0.00,,,0.04,WeatherCatV1.24B11,2017-05-26 06:32:00,
2017-05-26 02:37:00,54.9,51.7,29.57,North,6,1.0,1.0,89,0.00,,,0.04,WeatherCatV1.24B11,2017-05-26 06:37:00,
2017-05-26 02:42:00,54.9,51.7,29.57,West,259,2.0,4.0,89,0.00,,,0.05,WeatherCatV1.24B11,2017-05-26 06:42:00,
2017-05-26 02:47:00,55.0,51.8,29.57,WSW,254,1.0,2.0,89,0.00,,,0.05,WeatherCatV1.24B11,2017-05-26 06:47:00,
2017-05-26 02:52:00,55.0,51.8,29.57,West,276,2.0,3.0,89,0.06,,,0.06,WeatherCatV1.24B11,2017-05-26 06:52:00,
2017-05-26 02:57:00,55.0,51.8,29.57,ESE,122,0.0,3.0,89,0.06,,,0.06,WeatherCatV1.24B11,2017-05-26 06:57:00,
2017-05-26 03:02:00,55.0,51.8,29.57,WSW,255,2.0,4.0,89,0.06,,,0.07,WeatherCatV1.24B11,2017-05-26 07:02:00,
2017-05-26 03:07:00,55.1,51.9,29.57,West,267,0.0,1.0,89,0.06,,,0.07,WeatherCatV1.24B11,2017-05-26 07:07:00,
2017-05-26 03:12:00,55.0,51.8,29.57,West,278,0.0,1.0,89,0.08,,,0.08,WeatherCatV1.24B11,2017-05-26 07:12:00,
2017-05-26 03:17:00,55.0,51.8,29.57,NW,319,1.0,4.0,89,0.06,,,0.08,WeatherCatV1.24B11,2017-05-26 07:17:00,
2017-05-26 03:22:00,55.0,51.8,29.58,WSW,257,0.0,1.0,89,0.04,,,0.08,WeatherCatV1.24B11,2017-05-26 07:22:00,
2017-05-26 03:27:00,55.0,51.8,29.58,West,264,0.0,1.0,89,0.04,,,0.09,WeatherCatV1.24B11,2017-05-26 07:27:00,
2017-05-26 03:32:00,55.0,51.8,29.58,West,276,0.0,3.0,89,0.04,,,0.09,WeatherCatV1.24B11,2017-05-26 07:32:00,
2017-05-26 03:37:00,54.9,51.7,29.58,WNW,302,1.0,3.0,89,0.04,,,0.09,WeatherCatV1.24B11,2017-05-26 07:37:00,
2017-05-26 03:42:00,54.9,51.7,29.58,West,273,2.0,2.0,89,0.00,,,0.09,WeatherCatV1.24B11,2017-05-26 07:42:00,
2017-05-26 03:47:00,54.9,51.7,29.58,NE,36,0.0,1.0,89,0.00,,,0.10,WeatherCatV1.24B11,2017-05-26 07:47:00,
2017-05-26 03:52:00,54.8,51.6,29.59,West,264,0.0,0.0,89,0.00,,,0.10,WeatherCatV1.24B11,2017-05-26 07:52:00,
2017-05-26 03:57:00,54.8,51.6,29.59,NW,324,0.0,0.0,89,0.00,,,0.10,WeatherCatV1.24B11,2017-05-26 07:57:00,
2017-05-26 04:02:00,54.8,51.6,29.59,North,355,0.0,0.0,89,0.00,,,0.11,WeatherCatV1.24B11,2017-05-26 08:02:00,
2017-05-26 04:07:00,54.7,51.5,29.59,NNW,327,1.0,6.0,89,0.00,,,0.11,WeatherCatV1.24B11,2017-05-26 08:07:00,
2017-05-26 04:12:00,54.7,51.5,29.59,West,260,0.0,2.0,89,0.00,,,0.11,WeatherCatV1.24B11,2017-05-26 08:12:00,
2017-05-26 04:17:00,54.7,51.5,29.59,WSW,248,1.0,3.0,89,0.00,,,0.11,WeatherCatV1.24B11,2017-05-26 08:17:00,
2017-05-26 04:22:00,54.7,51.5,29.59,WSW,256,1.0,4.0,89,0.00,,,0.12,WeatherCatV1.24B11,2017-05-26 08:22:00,
2017-05-26 04:27:00,54.6,51.4,29.60,WNW,293,1.0,4.0,89,0.00,,,0.12,WeatherCatV1.24B11,2017-05-26 08:27:00,
2017-05-26 04:33:00,54.6,51.4,29.60,NW,321,2.0,3.0,89,0.00,,,0.12,WeatherCatV1.24B11,2017-05-26 08:33:00,
2017-05-26 04:38:00,54.5,51.3,29.60,North,353,1.0,2.0,89,0.00,,,0.12,WeatherCatV1.24B11,2017-05-26 08:38:00,
2017-05-26 04:43:00,54.5,51.3,29.60,West,281,0.0,1.0,89,0.00,,,0.12,WeatherCatV1.24B11,2017-05-26 08:43:00,
2017-05-26 04:48:00,54.4,51.2,29.60,NW,316,0.0,0.0,89,0.00,,,0.12,WeatherCatV1.24B11,2017-05-26 08:48:00,
2017-05-26 04:53:00,54.4,51.2,29.61,West,281,1.0,2.0,89,0.00,,,0.12,WeatherCatV1.24B11,2017-05-26 08:53:00,
2017-05-26 04:58:00,54.4,51.2,29.61,NW,315,3.0,3.0,89,0.00,,,0.12,WeatherCatV1.24B11,2017-05-26 08:58:00,
2017-05-26 05:03:00,54.3,51.1,29.61,WSW,255,2.0,4.0,89,0.00,,,0.12,WeatherCatV1.24B11,2017-05-26 09:03:00,
2017-05-26 05:08:00,54.3,51.1,29.61,West,277,1.0,3.0,89,0.00,,,0.12,WeatherCatV1.24B11,2017-05-26 09:08:00,
2017-05-26 05:13:00,54.3,51.1,29.62,WNW,287,3.0,4.0,89,0.00,,,0.12,WeatherCatV1.24B11,2017-05-26 09:13:00,
2017-05-26 05:18:00,54.2,51.0,29.62,West,265,1.0,4.0,89,0.00,,,0.12,WeatherCatV1.24B11,2017-05-26 09:18:00,
2017-05-26 05:23:00,54.2,51.0,29.62,ENE,66,3.0,4.0,89,0.00,,,0.12,WeatherCatV1.24B11,2017-05-26 09:23:00,
2017-05-26 05:28:00,54.0,50.8,29.63,NW,318,1.0,5.0,89,0.00,,,0.13,WeatherCatV1.24B11,2017-05-26 09:28:00,
2017-05-26 05:33:00,53.9,50.7,29.63,North,11,5.0,5.0,89,0.00,,,0.13,WeatherCatV1.24B11,2017-05-26 09:33:00,
2017-05-26 05:38:00,53.8,50.6,29.63,NNW,328,0.0,4.0,89,0.00,,,0.13,WeatherCatV1.24B11,2017-05-26 09:38:00,
2017-05-26 05:43:00,53.7,50.5,29.64,West,260,3.0,3.0,89,0.00,,,0.13,WeatherCatV1.24B11,2017-05-26 09:43:00,
2017-05-26 05:48:00,53.6,50.4,29.64,WNW,298,0.0,5.0,89,0.00,,,0.13,WeatherCatV1.24B11,2017-05-26 09:48:00,
2017-05-26 05:53:00,53.6,50.4,29.64,West,273,0.0,3.0,89,0.00,,,0.14,WeatherCatV1.24B11,2017-05-26 09:53:00,
2017-05-26 05:58:00,53.5,50.3,29.64,West,281,0.0,5.0,89,0.00,,,0.14,WeatherCatV1.24B11,2017-05-26 09:58:00,
2017-05-26 06:04:00,53.4,50.2,29.65,SW,231,0.0,5.0,89,0.00,,,0.14,WeatherCatV1.24B11,2017-05-26 10:04:00,
2017-05-26 06:09:00,53.4,50.2,29.65,West,260,0.0,1.0,89,0.00,,,0.14,WeatherCatV1.24B11,2017-05-26 10:09:00,
2017-05-26 06:14:00,53.4,50.2,29.65,West,277,2.0,4.0,89,0.00,,,0.14,WeatherCatV1.24B11,2017-05-26 10:14:00,
2017-05-26 06:19:00,53.3,50.1,29.66,WNW,295,2.0,8.0,89,0.00,,,0.14,WeatherCatV1.24B11,2017-05-26 10:19:00,
2017-05-26 06:24:00,53.3,50.1,29.66,NW,317,0.0,6.0,89,0.00,,,0.14,WeatherCatV1.24B11,2017-05-26 10:24:00,
2017-05-26 06:29:00,53.3,50.1,29.66,West,260,0.0,3.0,89,0.00,,,0.14,WeatherCatV1.24B11,2017-05-26 10:29:00,
2017-05-26 06:34:00,53.2,50.0,29.67,NNW,345,2.0,3.0,89,0.00,,,0.14,WeatherCatV1.24B11,2017-05-26 10:34:00,
2017-05-26 06:39:00,53.2,50.0,29.67,NNE,25,3.0,5.0,89,0.00,,,0.14,WeatherCatV1.24B11,2017-05-26 10:39:00,
2017-05-26 06:44:00,53.2,50.0,29.67,WNW,289,1.0,7.0,89,0.00,,,0.14,WeatherCatV1.24B11,2017-05-26 10:44:00,
2017-05-26 06:49:00,53.1,49.9,29.67,NW,310,0.0,0.0,89,0.00,,,0.14,WeatherCatV1.24B11,2017-05-26 10:49:00,
2017-05-26 06:54:00,53.1,49.9,29.67,NNW,346,1.0,6.0,89,0.00,,,0.14,WeatherCatV1.24B11,2017-05-26 10:54:00,
2017-05-26 07:04:00,53.1,49.9,29.68,West,280,0.0,4.0,89,0.00,,,0.15,WeatherCatV1.24B11,2017-05-26 11:04:00,
2017-05-26 07:09:00,53.1,49.9,29.68,SW,226,1.0,4.0,89,0.00,,,0.15,WeatherCatV1.24B11,2017-05-26 11:09:00,
2017-05-26 07:14:00,53.0,49.8,29.68,NNW,346,3.0,7.0,89,0.00,,,0.15,WeatherCatV1.24B11,2017-05-26 11:14:00,
2017-05-26 07:19:00,53.1,49.9,29.68,NW,306,1.0,4.0,89,0.00,,,0.15,WeatherCatV1.24B11,2017-05-26 11:19:00,
2017-05-26 07:24:00,53.1,49.9,29.68,NNW,327,2.0,5.0,89,0.00,,,0.15,WeatherCatV1.24B11,2017-05-26 11:24:00,
2017-05-26 07:29:00,53.1,49.9,29.69,West,276,1.0,5.0,89,0.00,,,0.15,WeatherCatV1.24B11,2017-05-26 11:29:00,
2017-05-26 07:34:00,53.0,49.8,29.69,West,266,0.0,3.0,89,0.00,,,0.15,WeatherCatV1.24B11,2017-05-26 11:34:00,
2017-05-26 07:39:00,52.9,49.8,29.69,NW,309,2.0,7.0,89,0.00,,,0.15,WeatherCatV1.24B11,2017-05-26 11:39:00,
2017-05-26 07:44:00,52.8,49.7,29.69,North,351,1.0,2.0,89,0.00,,,0.15,WeatherCatV1.24B11,2017-05-26 11:44:00,
2017-05-26 07:49:00,52.8,49.7,29.69,WNW,301,0.0,1.0,89,0.00,,,0.15,WeatherCatV1.24B11,2017-05-26 11:49:00,
2017-05-26 07:54:00,52.8,49.7,29.70,NW,315,1.0,6.0,89,0.00,,,0.15,WeatherCatV1.24B11,2017-05-26 11:54:00,
2017-05-26 07:59:00,52.8,49.7,29.70,North,356,1.0,3.0,89,0.00,,,0.15,WeatherCatV1.24B11,2017-05-26 11:59:00,
2017-05-26 08:04:00,52.9,49.8,29.70,North,350,0.0,5.0,89,0.00,,,0.15,WeatherCatV1.24B11,2017-05-26 12:04:00,
2017-05-26 08:09:00,52.9,49.8,29.70,NNW,332,2.0,7.0,89,0.00,,,0.15,WeatherCatV1.24B11,2017-05-26 12:09:00,
2017-05-26 08:14:00,52.9,49.8,29.71,WNW,291,2.0,2.0,89,0.00,,,0.15,WeatherCatV1.24B11,2017-05-26 12:14:00,
2017-05-26 08:19:00,52.9,49.8,29.71,WNW,293,0.0,2.0,89,0.00,,,0.15,WeatherCatV1.24B11,2017-05-26 12:19:00,
2017-05-26 08:24:00,52.9,49.8,29.71,West,263,0.0,3.0,89,0.00,,,0.16,WeatherCatV1.24B11,2017-05-26 12:24:00,
2017-05-26 08:29:00,52.9,49.8,29.71,WNW,283,2.0,3.0,89,0.00,,,0.16,WeatherCatV1.24B11,2017-05-26 12:29:00,
2017-05-26 08:34:00,52.8,49.7,29.71,WNW,302,0.0,3.0,89,0.00,,,0.16,WeatherCatV1.24B11,2017-05-26 12:34:00,
2017-05-26 08:39:00,52.8,49.7,29.72,WNW,301,3.0,4.0,89,0.00,,,0.16,WeatherCatV1.24B11,2017-05-26 12:39:00,